• In Hungary
  • List of Countries
  • For 7 days
  • Water Temperature
  • Satellite Maps
  • Weather Map
  • News
  • Weather Widgets
  • user-avatar
    Login

    Hourly Weather Asylguzhino

    Today, 19 June, Tuesday

    Time Temperature Precipitation Wind Pressure Humidity
    00:00 +12°C° 0 mm 2 mps 727 mmHg 96%
    01:00 +12°C° 0 mm 1 mps 727 mmHg 97%
    02:00 +12°C° 0 mm 2 mps 727 mmHg 97%
    03:00 +10°C° 0 mm 2 mps 727 mmHg 97%
    04:00 +11°C° 0 mm 1 mps 727 mmHg 97%
    05:00 +13°C° 0.1 mm 2 mps 727 mmHg 96%
    06:00 +14°C° 0.1 mm 2 mps 727 mmHg 94%
    07:00 +15°C° 0.1 mm 2 mps 727 mmHg 92%
    08:00 +17°C° 0.3 mm 2 mps 727 mmHg 86%
    09:00 +18°C° 0.3 mm 3 mps 727 mmHg 79%
    10:00 +20°C° 0.3 mm 3 mps 727 mmHg 72%
    11:00 +20°C° 0.4 mm 3 mps 727 mmHg 70%
    12:00 +21°C° 0.4 mm 3 mps 727 mmHg 68%
    13:00 +22°C° 0.4 mm 4 mps 727 mmHg 66%
    14:00 +22°C° 0.4 mm 4 mps 727 mmHg 68%
    15:00 +21°C° 0.4 mm 4 mps 727 mmHg 69%
    16:00 +21°C° 0.4 mm 4 mps 727 mmHg 70%
    17:00 +20°C° 0.3 mm 3 mps 727 mmHg 75%
    18:00 +20°C° 0.3 mm 3 mps 727 mmHg 79%
    19:00 +19°C° 0.3 mm 3 mps 727 mmHg 83%
    20:00 +17°C° 0.1 mm 3 mps 727 mmHg 87%
    21:00 +16°C° 0.1 mm 2 mps 727 mmHg 90%
    22:00 +14°C° 0.1 mm 2 mps 727 mmHg 94%
    23:00 +14°C° 0 mm 2 mps 727 mmHg 94%

    Tomorrow, 20 June, Wednesday

    Time Temperature Precipitation Wind Pressure Humidity
    00:00 +13°C° 0 mm 2 mps 727 mmHg 94%
    01:00 +13°C° 0 mm 2 mps 727 mmHg 94%
    02:00 +13°C° 0 mm 2 mps 727 mmHg 95%
    03:00 +12°C° 0 mm 2 mps 727 mmHg 95%
    04:00 +12°C° 0 mm 2 mps 727 mmHg 95%
    05:00 +13°C° 0 mm 2 mps 727 mmHg 91%
    06:00 +15°C° 0 mm 2 mps 728 mmHg 87%
    07:00 +17°C° 0 mm 2 mps 728 mmHg 83%
    08:00 +19°C° 0.1 mm 3 mps 728 mmHg 73%
    09:00 +21°C° 0.1 mm 3 mps 728 mmHg 64%
    10:00 +23°C° 0.1 mm 4 mps 728 mmHg 54%
    11:00 +23°C° 0.4 mm 4 mps 727 mmHg 54%
    12:00 +23°C° 0.4 mm 4 mps 727 mmHg 55%
    13:00 +25°C° 0.4 mm 4 mps 726 mmHg 55%
    14:00 +25°C° 0.2 mm 4 mps 726 mmHg 57%
    15:00 +25°C° 0.2 mm 5 mps 726 mmHg 59%
    16:00 +25°C° 0.2 mm 5 mps 725 mmHg 60%
    17:00 +22°C° 0.6 mm 5 mps 725 mmHg 71%
    18:00 +20°C° 0.6 mm 4 mps 724 mmHg 82%
    19:00 +18°C° 0.6 mm 4 mps 723 mmHg 93%
    20:00 +16°C° 1.1 mm 5 mps 723 mmHg 94%
    21:00 +16°C° 1.1 mm 5 mps 723 mmHg 95%
    22:00 +16°C° 1.1 mm 5 mps 722 mmHg 96%
    23:00 +14°C° 0.3 mm 5 mps 723 mmHg 96%

    Day after tomorrow, 21 June, Thursday

    Time Temperature Precipitation Wind Pressure Humidity
    00:00 +13°C° 0.3 mm 5 mps 723 mmHg 95%
    01:00 +10°C° 0.3 mm 5 mps 723 mmHg 95%
    02:00 +10°C° 0 mm 5 mps 723 mmHg 95%
    03:00 +9°C° 0 mm 5 mps 724 mmHg 95%
    04:00 +8°C° 0 mm 5 mps 724 mmHg 95%
    05:00 +9°C° 0 mm 6 mps 724 mmHg 88%
    06:00 +10°C° 0 mm 6 mps 724 mmHg 82%
    07:00 +11°C° 0 mm 7 mps 724 mmHg 76%
    08:00 +14°C° 0.1 mm 7 mps 724 mmHg 70%
    09:00 +15°C° 0.1 mm 8 mps 724 mmHg 63%
    10:00 +16°C° 0.1 mm 8 mps 724 mmHg 57%
    11:00 +16°C° 0.4 mm 8 mps 724 mmHg 59%
    12:00 +16°C° 0.4 mm 8 mps 724 mmHg 61%
    13:00 +16°C° 0.4 mm 9 mps 724 mmHg 63%
    14:00 +15°C° 1.1 mm 8 mps 724 mmHg 72%
    15:00 +12°C° 1.1 mm 8 mps 724 mmHg 81%
    16:00 +11°C° 1.1 mm 7 mps 724 mmHg 90%
    17:00 +10°C° 0.5 mm 7 mps 724 mmHg 90%
    18:00 +10°C° 0.5 mm 7 mps 724 mmHg 91%
    19:00 +10°C° 0.5 mm 6 mps 724 mmHg 91%
    20:00 +10°C° 0.7 mm 6 mps 724 mmHg 91%
    21:00 +10°C° 0.7 mm 6 mps 724 mmHg 91%
    22:00 +9°C° 0.7 mm 6 mps 724 mmHg 91%
    23:00 +10°C° 0.3 mm 6 mps 724 mmHg 90%

    22 June, Friday

    Time Temperature Precipitation Wind Pressure Humidity
    00:00 +10°C° 0.3 mm 7 mps 724 mmHg 89%
    01:00 +10°C° 0.3 mm 7 mps 724 mmHg 88%
    02:00 +10°C° 0 mm 6 mps 724 mmHg 85%
    03:00 +10°C° 0 mm 6 mps 725 mmHg 82%
    04:00 +10°C° 0 mm 6 mps 725 mmHg 79%
    05:00 +11°C° 0 mm 6 mps 725 mmHg 76%
    06:00 +11°C° 0 mm 6 mps 726 mmHg 73%
    07:00 +12°C° 0 mm 7 mps 726 mmHg 70%
    08:00 +14°C° 0 mm 7 mps 726 mmHg 66%
    09:00 +15°C° 0 mm 7 mps 727 mmHg 61%
    10:00 +17°C° 0 mm 7 mps 727 mmHg 57%
    11:00 +17°C° 0 mm 7 mps 727 mmHg 56%
    12:00 +18°C° 0 mm 7 mps 727 mmHg 55%
    13:00 +18°C° 0 mm 7 mps 727 mmHg 54%
    14:00 +18°C° 0 mm 7 mps 728 mmHg 54%
    15:00 +20°C° 0 mm 6 mps 728 mmHg 54%
    16:00 +20°C° 0 mm 6 mps 728 mmHg 54%
    17:00 +19°C° 0 mm 6 mps 729 mmHg 57%
    18:00 +19°C° 0 mm 5 mps 729 mmHg 60%
    19:00 +17°C° 0 mm 5 mps 729 mmHg 62%
    20:00 +17°C° 0 mm 4 mps 730 mmHg 67%
    21:00 +15°C° 0 mm 4 mps 730 mmHg 71%
    22:00 +13°C° 0 mm 4 mps 730 mmHg 76%
    23:00 +13°C° 0 mm 3 mps 731 mmHg 79%

    23 June, Saturday

    Time Temperature Precipitation Wind Pressure Humidity
    00:00 +12°C° 0 mm 3 mps 731 mmHg 83%
    01:00 +11°C° 0 mm 3 mps 731 mmHg 87%
    02:00 +12°C° 0 mm 2 mps 731 mmHg 89%
    03:00 +10°C° 0 mm 2 mps 731 mmHg 92%
    04:00 +10°C° 0 mm 2 mps 732 mmHg 94%
    05:00 +12°C° 0 mm 2 mps 732 mmHg 87%
    06:00 +13°C° 0 mm 3 mps 732 mmHg 80%
    07:00 +16°C° 0 mm 3 mps 733 mmHg 74%
    08:00 +18°C° 0 mm 4 mps 733 mmHg 66%
    09:00 +20°C° 0 mm 4 mps 733 mmHg 58%
    10:00 +21°C° 0 mm 5 mps 733 mmHg 50%
    11:00 +22°C° 0 mm 5 mps 733 mmHg 49%
    12:00 +23°C° 0 mm 5 mps 733 mmHg 48%
    13:00 +25°C° 0 mm 5 mps 733 mmHg 47%
    14:00 +25°C° 0 mm 5 mps 733 mmHg 49%
    15:00 +25°C° 0 mm 5 mps 733 mmHg 51%
    16:00 +25°C° 0 mm 4 mps 733 mmHg 53%
    17:00 +23°C° 0.1 mm 4 mps 733 mmHg 61%
    18:00 +24°C° 0.1 mm 3 mps 734 mmHg 68%
    19:00 +23°C° 0.1 mm 2 mps 734 mmHg 75%
    20:00 +20°C° 0 mm 2 mps 734 mmHg 81%
    21:00 +19°C° 0 mm 2 mps 734 mmHg 87%
    22:00 +18°C° 0 mm 1 mps 734 mmHg 94%
    23:00 +18°C° 0 mm 1 mps 734 mmHg 94%

    24 June, Sunday

    Time Temperature Precipitation Wind Pressure Humidity
    00:00 +16°C° 0 mm 1 mps 734 mmHg 95%
    01:00 +16°C° 0 mm 2 mps 734 mmHg 96%
    02:00 +16°C° 0 mm 2 mps 734 mmHg 97%
    03:00 +16°C° 0 mm 2 mps 734 mmHg 97%
    04:00 +16°C° 0 mm 2 mps 735 mmHg 97%
    05:00 +17°C° 0 mm 2 mps 735 mmHg 95%
    06:00 +19°C° 0 mm 2 mps 735 mmHg 92%
    07:00 +20°C° 0 mm 3 mps 735 mmHg 89%
    08:00 +22°C° 0.1 mm 3 mps 735 mmHg 83%
    09:00 +24°C° 0.1 mm 3 mps 735 mmHg 76%
    10:00 +26°C° 0.1 mm 4 mps 735 mmHg 70%
    11:00 +27°C° 0.1 mm 4 mps 735 mmHg 66%
    12:00 +28°C° 0.1 mm 4 mps 735 mmHg 61%
    13:00 +29°C° 0.1 mm 4 mps 734 mmHg 57%
    14:00 +29°C° 0.1 mm 4 mps 734 mmHg 57%
    15:00 +29°C° 0.1 mm 4 mps 734 mmHg 57%
    16:00 +29°C° 0.1 mm 4 mps 734 mmHg 57%
    17:00 +28°C° 0 mm 3 mps 734 mmHg 63%
    18:00 +27°C° 0 mm 3 mps 734 mmHg 69%
    19:00 +26°C° 0 mm 2 mps 734 mmHg 75%
    20:00 +24°C° 0 mm 2 mps 734 mmHg 81%
    21:00 +23°C° 0 mm 2 mps 734 mmHg 87%
    22:00 +20°C° 0 mm 2 mps 735 mmHg 93%
    23:00 +19°C° 0 mm 2 mps 735 mmHg 94%
    Show more